Year,Month,Day,Hour,Minute,Value (Times are PST for temperature in C)
2012,02,04,00,00,5.20
2012,02,04,00,01,5.10
2012,02,04,00,02,4.90
2012,02,04,00,03,4.80
2012,02,04,00,04,4.70
2012,02,04,00,05,4.60
2012,02,04,00,06,4.50
2012,02,04,00,07,4.50
2012,02,04,00,08,4.40
2012,02,04,00,09,4.30
2012,02,04,00,10,4.30
2012,02,04,00,11,4.20
2012,02,04,00,12,4.20
2012,02,04,00,13,4.20
2012,02,04,00,14,4.10
2012,02,04,00,15,4.00
2012,02,04,00,16,4.00
2012,02,04,00,17,4.00
2012,02,04,00,18,3.90
2012,02,04,00,19,3.80
2012,02,04,00,20,3.80
2012,02,04,00,21,3.80
2012,02,04,00,22,3.80
2012,02,04,00,23,3.70
2012,02,04,00,24,3.70
2012,02,04,00,25,3.70
2012,02,04,00,26,3.70
2012,02,04,00,27,3.60
2012,02,04,00,28,3.60
2012,02,04,00,29,3.60
2012,02,04,00,30,3.60
2012,02,04,00,31,3.60
2012,02,04,00,32,3.50
2012,02,04,00,33,3.50
2012,02,04,00,34,3.40
2012,02,04,00,35,3.40
2012,02,04,00,36,3.30
2012,02,04,00,37,3.30
2012,02,04,00,38,3.30
2012,02,04,00,39,3.30
2012,02,04,00,40,3.30
2012,02,04,00,41,3.30
2012,02,04,00,42,3.30
2012,02,04,00,43,3.30
2012,02,04,00,44,3.30
2012,02,04,00,45,3.30
2012,02,04,00,46,3.30
2012,02,04,00,47,3.20
2012,02,04,00,48,3.20
2012,02,04,00,49,3.20
2012,02,04,00,50,3.20
2012,02,04,00,51,3.20
2012,02,04,00,52,3.20
2012,02,04,00,53,3.10
2012,02,04,00,54,3.10
2012,02,04,00,55,3.10
2012,02,04,00,56,3.10
2012,02,04,00,57,3.10
2012,02,04,00,58,3.10
2012,02,04,00,59,3.10
2012,02,04,01,00,3.10
2012,02,04,01,01,3.10
2012,02,04,01,02,3.10
2012,02,04,01,03,2.90
2012,02,04,01,04,2.90
2012,02,04,01,05,2.90
2012,02,04,01,06,2.90
2012,02,04,01,07,2.90
2012,02,04,01,08,2.90
2012,02,04,01,09,2.90
2012,02,04,01,10,2.90
2012,02,04,01,11,2.90
2012,02,04,01,12,2.90
2012,02,04,01,13,2.90
2012,02,04,01,14,2.90
2012,02,04,01,15,2.90
2012,02,04,01,16,2.90
2012,02,04,01,17,2.90
2012,02,04,01,18,2.90
2012,02,04,01,19,2.90
2012,02,04,01,20,2.90
2012,02,04,01,21,2.90
2012,02,04,01,22,2.90
2012,02,04,01,23,2.90
2012,02,04,01,24,2.90
2012,02,04,01,25,2.90
2012,02,04,01,26,2.90
2012,02,04,01,27,2.90
2012,02,04,01,28,2.90
2012,02,04,01,29,2.80
2012,02,04,01,30,2.80
2012,02,04,01,31,2.80
2012,02,04,01,32,2.80
2012,02,04,01,33,2.80
2012,02,04,01,34,2.80
2012,02,04,01,35,2.80
2012,02,04,01,36,2.80
2012,02,04,01,37,2.80
2012,02,04,01,38,2.70
2012,02,04,01,39,2.70
2012,02,04,01,40,2.70
2012,02,04,01,41,2.70
2012,02,04,01,42,2.70
2012,02,04,01,43,2.70
2012,02,04,01,44,2.70
2012,02,04,01,45,2.70
2012,02,04,01,46,2.80
2012,02,04,01,47,2.90
2012,02,04,01,48,3.00
2012,02,04,01,49,3.10
2012,02,04,01,50,3.10
2012,02,04,01,51,3.10
2012,02,04,01,52,3.10
2012,02,04,01,53,3.10
2012,02,04,01,54,3.00
2012,02,04,01,55,2.90
2012,02,04,01,56,2.90
2012,02,04,01,57,2.90
2012,02,04,01,58,2.90
2012,02,04,01,59,3.20
2012,02,04,02,00,3.30
2012,02,04,02,01,3.50
2012,02,04,02,02,3.70
2012,02,04,02,03,4.00
2012,02,04,02,04,4.20
2012,02,04,02,05,4.40
2012,02,04,02,06,4.50
2012,02,04,02,07,4.50
2012,02,04,02,08,4.60
2012,02,04,02,09,4.60
2012,02,04,02,10,4.50
2012,02,04,02,11,4.50
2012,02,04,02,12,4.60
2012,02,04,02,13,4.50
2012,02,04,02,14,4.50
2012,02,04,02,15,4.40
2012,02,04,02,16,4.30
2012,02,04,02,17,4.30
2012,02,04,02,18,4.20
2012,02,04,02,19,4.10
2012,02,04,02,20,4.00
2012,02,04,02,21,3.80
2012,02,04,02,22,3.70
2012,02,04,02,23,3.60
2012,02,04,02,24,3.40
2012,02,04,02,25,3.30
2012,02,04,02,26,3.20
2012,02,04,02,27,3.10
2012,02,04,02,28,3.10
2012,02,04,02,29,3.00
2012,02,04,02,30,2.90
2012,02,04,02,31,2.90
2012,02,04,02,32,2.90
2012,02,04,02,33,2.80
2012,02,04,02,34,2.80
2012,02,04,02,35,2.80
2012,02,04,02,36,2.70
2012,02,04,02,37,2.70
2012,02,04,02,38,2.70
2012,02,04,02,39,2.70
2012,02,04,02,40,2.70
2012,02,04,02,41,2.70
2012,02,04,02,42,2.70
2012,02,04,02,43,2.60
2012,02,04,02,44,2.60
2012,02,04,02,45,2.50
2012,02,04,02,46,2.50
2012,02,04,02,47,2.50
2012,02,04,02,48,2.40
2012,02,04,02,49,2.40
2012,02,04,02,50,2.40
2012,02,04,02,51,2.30
2012,02,04,02,52,2.30
2012,02,04,02,53,2.30
2012,02,04,02,54,2.30
2012,02,04,02,55,2.30
2012,02,04,02,56,2.30
2012,02,04,02,57,2.30
2012,02,04,02,58,2.30
2012,02,04,02,59,2.30
2012,02,04,03,00,2.20
2012,02,04,03,01,2.20
2012,02,04,03,02,2.20
2012,02,04,03,03,2.20
2012,02,04,03,04,2.20
2012,02,04,03,05,2.20
2012,02,04,03,06,2.20
2012,02,04,03,07,2.20
2012,02,04,03,08,2.20
2012,02,04,03,09,2.20
2012,02,04,03,10,2.20
2012,02,04,03,11,2.20
2012,02,04,03,12,2.20
2012,02,04,03,13,2.20
2012,02,04,03,14,2.20
2012,02,04,03,15,2.20
2012,02,04,03,16,2.20
2012,02,04,03,17,2.20
2012,02,04,03,18,2.20
2012,02,04,03,19,2.20
2012,02,04,03,20,2.10
2012,02,04,03,21,2.10
2012,02,04,03,22,2.10
2012,02,04,03,23,2.00
2012,02,04,03,24,2.00
2012,02,04,03,25,2.00
2012,02,04,03,26,2.00
2012,02,04,03,27,2.10
2012,02,04,03,28,2.10
2012,02,04,03,29,2.10
2012,02,04,03,30,2.10
2012,02,04,03,31,2.10
2012,02,04,03,32,2.00
2012,02,04,03,33,2.00
2012,02,04,03,34,2.00
2012,02,04,03,35,2.10
2012,02,04,03,36,2.20
2012,02,04,03,37,2.30
2012,02,04,03,38,2.50
2012,02,04,03,39,2.70
2012,02,04,03,40,3.00
2012,02,04,03,41,3.20
2012,02,04,03,42,3.50
2012,02,04,03,43,3.70
2012,02,04,03,44,3.90
2012,02,04,03,45,4.00
2012,02,04,03,46,4.20
2012,02,04,03,47,4.30
2012,02,04,03,48,4.40
2012,02,04,03,49,4.50
2012,02,04,03,50,4.60
2012,02,04,03,51,4.60
2012,02,04,03,52,4.60
2012,02,04,03,53,4.70
2012,02,04,03,54,4.70
2012,02,04,03,55,4.70
2012,02,04,03,56,4.70
2012,02,04,03,57,4.50
2012,02,04,03,58,4.40
2012,02,04,03,59,4.30
2012,02,04,04,00,4.20
2012,02,04,04,01,4.10
2012,02,04,04,02,4.00
2012,02,04,04,03,4.00
2012,02,04,04,04,4.00
2012,02,04,04,05,4.00
2012,02,04,04,06,4.00
2012,02,04,04,07,3.90
2012,02,04,04,08,3.80
2012,02,04,04,09,3.60
2012,02,04,04,10,3.40
2012,02,04,04,11,3.30
2012,02,04,04,12,3.20
2012,02,04,04,13,3.00
2012,02,04,04,14,2.90
2012,02,04,04,15,2.80
2012,02,04,04,16,2.70
2012,02,04,04,17,2.70
2012,02,04,04,18,2.70
2012,02,04,04,19,2.60
2012,02,04,04,20,2.50
2012,02,04,04,21,2.50
2012,02,04,04,22,2.50
2012,02,04,04,23,2.50
2012,02,04,04,24,2.40
2012,02,04,04,25,2.40
2012,02,04,04,26,2.40
2012,02,04,04,27,2.50
2012,02,04,04,28,2.60
2012,02,04,04,29,2.70
2012,02,04,04,30,2.80
2012,02,04,04,31,2.90
2012,02,04,04,32,3.10
2012,02,04,04,33,3.30
2012,02,04,04,34,3.30
2012,02,04,04,35,3.50
2012,02,04,04,36,3.60
2012,02,04,04,37,3.80
2012,02,04,04,38,3.80
2012,02,04,04,39,3.90
2012,02,04,04,40,4.00
2012,02,04,04,41,4.00
2012,02,04,04,42,4.00
2012,02,04,04,43,4.00
2012,02,04,04,44,4.00
2012,02,04,04,45,4.00
2012,02,04,04,46,4.10
2012,02,04,04,47,4.20
2012,02,04,04,48,4.20
2012,02,04,04,49,4.20
2012,02,04,04,50,4.30
2012,02,04,04,51,4.40
2012,02,04,04,52,4.40
2012,02,04,04,53,4.40
2012,02,04,04,54,4.40
2012,02,04,04,55,4.40
2012,02,04,04,56,4.40
2012,02,04,04,57,4.50
2012,02,04,04,58,4.40
2012,02,04,04,59,4.40
2012,02,04,05,00,4.40
2012,02,04,05,01,4.40
2012,02,04,05,02,4.40
2012,02,04,05,03,4.40
2012,02,04,05,04,4.40
2012,02,04,05,05,4.40
2012,02,04,05,06,4.30
2012,02,04,05,07,4.30
2012,02,04,05,08,4.20
2012,02,04,05,09,4.20
2012,02,04,05,10,4.20
2012,02,04,05,11,4.20
2012,02,04,05,12,4.20
2012,02,04,05,13,4.30
2012,02,04,05,14,4.30
2012,02,04,05,15,4.40
2012,02,04,05,16,4.40
2012,02,04,05,17,4.40
2012,02,04,05,18,4.40
2012,02,04,05,19,4.40
2012,02,04,05,20,4.40
2012,02,04,05,21,4.40
2012,02,04,05,22,4.40
2012,02,04,05,23,4.40
2012,02,04,05,24,4.40
2012,02,04,05,25,4.50
2012,02,04,05,26,4.60
2012,02,04,05,27,4.60
2012,02,04,05,28,4.60
2012,02,04,05,29,4.60
2012,02,04,05,30,4.60
2012,02,04,05,31,4.60
2012,02,04,05,32,4.60
2012,02,04,05,33,4.60
2012,02,04,05,34,4.60
2012,02,04,05,35,4.70
2012,02,04,05,36,4.70
2012,02,04,05,37,4.70
2012,02,04,05,38,4.70
2012,02,04,05,39,4.70
2012,02,04,05,40,4.70
2012,02,04,05,41,4.60
2012,02,04,05,42,4.60
2012,02,04,05,43,4.60
2012,02,04,05,44,4.60
2012,02,04,05,45,4.60
2012,02,04,05,46,4.70
2012,02,04,05,47,4.70
2012,02,04,05,48,4.60
2012,02,04,05,49,4.60
2012,02,04,05,50,4.60
2012,02,04,05,51,4.50
2012,02,04,05,52,4.50
2012,02,04,05,53,4.40
2012,02,04,05,54,4.30
2012,02,04,05,55,4.20
2012,02,04,05,56,4.20
2012,02,04,05,57,4.10
2012,02,04,05,58,4.00
2012,02,04,05,59,3.90
2012,02,04,06,00,3.90
2012,02,04,06,01,3.90
2012,02,04,06,02,3.80
2012,02,04,06,03,3.80
2012,02,04,06,04,3.80
2012,02,04,06,05,3.80
2012,02,04,06,06,3.80
2012,02,04,06,07,3.80
2012,02,04,06,08,3.80
2012,02,04,06,09,3.80
2012,02,04,06,10,3.80
2012,02,04,06,11,3.80
2012,02,04,06,12,3.80
2012,02,04,06,13,3.80
2012,02,04,06,14,3.80
2012,02,04,06,15,3.80
2012,02,04,06,16,3.80
2012,02,04,06,17,3.80
2012,02,04,06,18,3.80
2012,02,04,06,19,3.90
2012,02,04,06,20,3.90
2012,02,04,06,21,3.80
2012,02,04,06,22,3.80
2012,02,04,06,23,3.80
2012,02,04,06,24,3.80
2012,02,04,06,25,3.80
2012,02,04,06,26,3.80
2012,02,04,06,27,3.80
2012,02,04,06,28,3.90
2012,02,04,06,29,4.00
2012,02,04,06,30,4.00
2012,02,04,06,31,4.20
2012,02,04,06,32,4.20
2012,02,04,06,33,4.30
2012,02,04,06,34,4.40
2012,02,04,06,35,4.40
2012,02,04,06,36,4.50
2012,02,04,06,37,4.60
2012,02,04,06,38,4.60
2012,02,04,06,39,4.60
2012,02,04,06,40,4.60
2012,02,04,06,41,4.70
2012,02,04,06,42,4.70
2012,02,04,06,43,4.80
2012,02,04,06,44,4.80
2012,02,04,06,45,4.80
2012,02,04,06,46,4.80
2012,02,04,06,47,4.80
2012,02,04,06,48,4.80
2012,02,04,06,49,4.90
2012,02,04,06,50,4.90
2012,02,04,06,51,4.90
2012,02,04,06,52,4.90
2012,02,04,06,53,4.90
2012,02,04,06,54,4.90
2012,02,04,06,55,4.80
2012,02,04,06,56,4.80
2012,02,04,06,57,4.80
2012,02,04,06,58,4.80
2012,02,04,06,59,4.80
2012,02,04,07,00,4.80
2012,02,04,07,01,4.70
2012,02,04,07,02,4.70
2012,02,04,07,03,4.70
2012,02,04,07,04,4.60
2012,02,04,07,05,4.60
2012,02,04,07,06,4.70
2012,02,04,07,07,4.70
2012,02,04,07,08,4.70
2012,02,04,07,09,4.60
2012,02,04,07,10,4.60
2012,02,04,07,11,4.60
2012,02,04,07,12,4.50
2012,02,04,07,13,4.50
2012,02,04,07,14,4.50
2012,02,04,07,15,4.40
2012,02,04,07,16,4.40
2012,02,04,07,17,4.30
2012,02,04,07,18,4.30
2012,02,04,07,19,4.20
2012,02,04,07,20,4.20
2012,02,04,07,21,4.20
2012,02,04,07,22,4.10
2012,02,04,07,23,4.00
2012,02,04,07,24,4.00
2012,02,04,07,25,4.00
2012,02,04,07,26,3.90
2012,02,04,07,27,3.80
2012,02,04,07,28,3.80
2012,02,04,07,29,3.70
2012,02,04,07,30,3.60
2012,02,04,07,31,3.60
2012,02,04,07,32,3.60
2012,02,04,07,33,3.60
2012,02,04,07,34,3.60
2012,02,04,07,35,3.60
2012,02,04,07,36,3.60
2012,02,04,07,37,3.50
2012,02,04,07,38,3.50
2012,02,04,07,39,3.50
2012,02,04,07,40,3.50
2012,02,04,07,41,3.50
2012,02,04,07,42,3.50
2012,02,04,07,43,3.50
2012,02,04,07,44,3.50
2012,02,04,07,45,3.50
2012,02,04,07,46,3.50
2012,02,04,07,47,3.50
2012,02,04,07,48,3.40
2012,02,04,07,49,3.40
2012,02,04,07,50,3.40
2012,02,04,07,51,3.40
2012,02,04,07,52,3.40
2012,02,04,07,53,3.40
2012,02,04,07,54,3.50
2012,02,04,07,55,3.50
2012,02,04,07,56,3.60
2012,02,04,07,57,3.60
2012,02,04,07,58,3.70
2012,02,04,07,59,3.90
2012,02,04,08,00,4.00
2012,02,04,08,01,4.10
2012,02,04,08,02,4.20
2012,02,04,08,03,4.20
2012,02,04,08,04,4.30
2012,02,04,08,05,4.30
2012,02,04,08,06,4.30
2012,02,04,08,07,4.30
2012,02,04,08,08,4.30
2012,02,04,08,09,4.20
2012,02,04,08,10,4.20
2012,02,04,08,11,4.20
2012,02,04,08,12,4.20
2012,02,04,08,13,4.20
2012,02,04,08,14,4.20
2012,02,04,08,15,4.10
2012,02,04,08,16,4.10
2012,02,04,08,17,4.10
2012,02,04,08,18,4.10
2012,02,04,08,19,4.10
2012,02,04,08,20,4.10
2012,02,04,08,21,4.00
2012,02,04,08,22,4.10
2012,02,04,08,23,4.10
2012,02,04,08,24,4.10
2012,02,04,08,25,4.10
2012,02,04,08,26,4.00
2012,02,04,08,27,4.00
2012,02,04,08,28,4.00
2012,02,04,08,29,4.00
2012,02,04,08,30,4.00
2012,02,04,08,31,4.00
2012,02,04,08,32,4.10
2012,02,04,08,33,4.10
2012,02,04,08,34,4.10
2012,02,04,08,35,4.20
2012,02,04,08,36,4.20
2012,02,04,08,37,4.20
2012,02,04,08,38,4.20
2012,02,04,08,39,4.30
2012,02,04,08,40,4.30
2012,02,04,08,41,4.30
2012,02,04,08,42,4.40
2012,02,04,08,43,4.40
2012,02,04,08,44,4.40
2012,02,04,08,45,4.40
2012,02,04,08,46,4.40
2012,02,04,08,47,4.40
2012,02,04,08,48,4.40
2012,02,04,08,49,4.50
2012,02,04,08,50,4.50
2012,02,04,08,51,4.50
2012,02,04,08,52,4.60
2012,02,04,08,53,4.60
2012,02,04,08,54,4.70
2012,02,04,08,55,4.80
2012,02,04,08,56,4.80
2012,02,04,08,57,4.90
2012,02,04,08,58,4.90
2012,02,04,08,59,5.00
2012,02,04,09,00,5.10
2012,02,04,09,01,5.10
2012,02,04,09,02,5.20
2012,02,04,09,03,5.30
2012,02,04,09,04,5.40
2012,02,04,09,05,5.50
2012,02,04,09,06,5.60
2012,02,04,09,07,5.70
2012,02,04,09,08,5.70
2012,02,04,09,09,5.80
2012,02,04,09,10,5.80
2012,02,04,09,11,5.90
2012,02,04,09,12,6.00
2012,02,04,09,13,6.00
2012,02,04,09,14,6.10
2012,02,04,09,15,6.10
2012,02,04,09,16,6.20
2012,02,04,09,17,6.20
2012,02,04,09,18,6.20
2012,02,04,09,19,6.20
2012,02,04,09,20,6.30
2012,02,04,09,21,6.30
2012,02,04,09,22,6.30
2012,02,04,09,23,6.40
2012,02,04,09,24,6.40
2012,02,04,09,25,6.40
2012,02,04,09,26,6.50
2012,02,04,09,27,6.60
2012,02,04,09,28,6.60
2012,02,04,09,29,6.60
2012,02,04,09,30,6.60
2012,02,04,09,31,6.70
2012,02,04,09,32,6.70
2012,02,04,09,33,6.70
2012,02,04,09,34,6.80
2012,02,04,09,35,6.80
2012,02,04,09,36,6.80
2012,02,04,09,37,6.80
2012,02,04,09,38,6.80
2012,02,04,09,39,6.90
2012,02,04,09,40,6.90
2012,02,04,09,41,6.90
2012,02,04,09,42,6.90
2012,02,04,09,43,7.00
2012,02,04,09,44,7.00
2012,02,04,09,45,7.00
2012,02,04,09,46,7.00
2012,02,04,09,47,7.00
2012,02,04,09,48,7.00
2012,02,04,09,49,7.00
2012,02,04,09,50,7.00
2012,02,04,09,51,7.00
2012,02,04,09,52,7.00
2012,02,04,09,53,7.10
2012,02,04,09,54,7.10
2012,02,04,09,55,7.10
2012,02,04,09,56,7.10
2012,02,04,09,57,7.10
2012,02,04,09,58,7.10
2012,02,04,09,59,7.20
2012,02,04,10,00,7.20
2012,02,04,10,01,7.20
2012,02,04,10,02,7.20
2012,02,04,10,03,7.20
2012,02,04,10,04,7.20
2012,02,04,10,05,7.20
2012,02,04,10,06,7.20
2012,02,04,10,07,7.20
2012,02,04,10,08,7.30
2012,02,04,10,09,7.30
2012,02,04,10,10,7.30
2012,02,04,10,11,7.30
2012,02,04,10,12,7.30
2012,02,04,10,13,7.30
2012,02,04,10,14,7.30
2012,02,04,10,15,7.30
2012,02,04,10,16,7.30
2012,02,04,10,17,7.30
2012,02,04,10,18,7.40
2012,02,04,10,19,7.40
2012,02,04,10,20,7.40
2012,02,04,10,21,7.50
2012,02,04,10,22,7.50
2012,02,04,10,23,7.60
2012,02,04,10,24,7.60
2012,02,04,10,25,7.70
2012,02,04,10,26,7.70
2012,02,04,10,27,7.80
2012,02,04,10,28,7.80
2012,02,04,10,29,7.80
2012,02,04,10,30,7.80
2012,02,04,10,31,7.80
2012,02,04,10,32,7.90
2012,02,04,10,33,7.90
2012,02,04,10,34,7.90
2012,02,04,10,35,8.00
2012,02,04,10,36,8.00
2012,02,04,10,37,8.10
2012,02,04,10,38,8.20
2012,02,04,10,39,8.20
2012,02,04,10,40,8.20
2012,02,04,10,41,8.20
2012,02,04,10,42,8.20
2012,02,04,10,43,8.20
2012,02,04,10,44,8.20
2012,02,04,10,45,8.20
2012,02,04,10,46,8.20
2012,02,04,10,47,8.20
2012,02,04,10,48,8.20
2012,02,04,10,49,8.20
2012,02,04,10,50,8.20
2012,02,04,10,51,8.20
2012,02,04,10,52,8.20
2012,02,04,10,53,8.30
2012,02,04,10,54,8.30
2012,02,04,10,55,8.30
2012,02,04,10,56,8.30
2012,02,04,10,57,8.30
2012,02,04,10,58,8.30
2012,02,04,10,59,8.30
2012,02,04,11,00,8.30
2012,02,04,11,01,8.30
2012,02,04,11,02,8.20
2012,02,04,11,03,8.20
2012,02,04,11,04,8.20
2012,02,04,11,05,8.20
2012,02,04,11,06,8.20
2012,02,04,11,07,8.20
2012,02,04,11,08,8.20
2012,02,04,11,09,8.30
2012,02,04,11,10,8.30
2012,02,04,11,11,8.40
2012,02,04,11,12,8.40
2012,02,04,11,13,8.40
2012,02,04,11,14,8.40
2012,02,04,11,15,8.50
2012,02,04,11,16,8.50
2012,02,04,11,17,8.50
2012,02,04,11,18,8.40
2012,02,04,11,19,8.40
2012,02,04,11,20,8.40
2012,02,04,11,21,8.40
2012,02,04,11,22,8.40
2012,02,04,11,23,8.40
2012,02,04,11,24,8.50
2012,02,04,11,25,8.40
2012,02,04,11,26,8.40
2012,02,04,11,27,8.30
2012,02,04,11,28,8.30
2012,02,04,11,29,8.30
2012,02,04,11,30,8.40
2012,02,04,11,31,8.40
2012,02,04,11,32,8.50
2012,02,04,11,33,8.50
2012,02,04,11,34,8.60
2012,02,04,11,35,8.70
2012,02,04,11,36,8.70
2012,02,04,11,37,8.90
2012,02,04,11,38,8.90
2012,02,04,11,39,8.90
2012,02,04,11,40,8.90
2012,02,04,11,41,8.90
2012,02,04,11,42,9.00
2012,02,04,11,43,9.00
2012,02,04,11,44,9.10
2012,02,04,11,45,9.10
2012,02,04,11,46,9.10
2012,02,04,11,47,9.00
2012,02,04,11,48,9.00
2012,02,04,11,49,8.90
2012,02,04,11,50,8.90
2012,02,04,11,51,8.90
2012,02,04,11,52,8.90
2012,02,04,11,53,8.90
2012,02,04,11,54,8.90
2012,02,04,11,55,8.90
2012,02,04,11,56,8.90
2012,02,04,11,57,9.00
2012,02,04,11,58,9.00
2012,02,04,11,59,9.10
2012,02,04,12,00,9.10
2012,02,04,12,01,9.20
2012,02,04,12,02,9.20
2012,02,04,12,03,9.20
2012,02,04,12,04,9.30
2012,02,04,12,05,9.30
2012,02,04,12,06,9.30
2012,02,04,12,07,9.40
2012,02,04,12,08,9.40
2012,02,04,12,09,9.40
2012,02,04,12,10,9.50
2012,02,04,12,11,9.60
2012,02,04,12,12,9.60
2012,02,04,12,13,9.60
2012,02,04,12,14,9.60
2012,02,04,12,15,9.70
2012,02,04,12,16,9.70
2012,02,04,12,17,9.70
2012,02,04,12,18,9.80
2012,02,04,12,19,9.90
2012,02,04,12,20,9.90
2012,02,04,12,21,9.90
2012,02,04,12,22,9.90
2012,02,04,12,23,10.00
2012,02,04,12,24,10.00
2012,02,04,12,25,10.00
2012,02,04,12,26,10.10
2012,02,04,12,27,10.10
2012,02,04,12,28,10.10
2012,02,04,12,29,10.20
2012,02,04,12,30,10.20
2012,02,04,12,31,10.10
2012,02,04,12,32,10.10
2012,02,04,12,33,10.10
2012,02,04,12,34,10.20
2012,02,04,12,35,10.30
2012,02,04,12,36,10.30
2012,02,04,12,37,10.30
2012,02,04,12,38,10.30
2012,02,04,12,39,10.30
2012,02,04,12,40,10.30
2012,02,04,12,41,10.30
2012,02,04,12,42,10.20
2012,02,04,12,43,10.20
2012,02,04,12,44,10.20
2012,02,04,12,45,10.20
2012,02,04,12,46,10.20
2012,02,04,12,47,10.20
2012,02,04,12,48,10.30
2012,02,04,12,49,10.30
2012,02,04,12,50,10.40
2012,02,04,12,51,10.40
2012,02,04,12,52,10.40
2012,02,04,12,53,10.40
2012,02,04,12,54,10.40
2012,02,04,12,55,10.50
2012,02,04,12,56,10.60
2012,02,04,12,57,10.60
2012,02,04,12,58,10.60
2012,02,04,12,59,10.70
2012,02,04,13,00,10.70
2012,02,04,13,01,10.80
2012,02,04,13,02,10.80
2012,02,04,13,03,10.80
2012,02,04,13,04,10.90
2012,02,04,13,05,10.90
2012,02,04,13,06,11.00
2012,02,04,13,07,11.00
2012,02,04,13,08,11.10
2012,02,04,13,09,11.10
2012,02,04,13,10,11.20
2012,02,04,13,11,11.20
2012,02,04,13,12,11.10
2012,02,04,13,13,11.10
2012,02,04,13,14,11.20
2012,02,04,13,15,11.20
2012,02,04,13,16,11.20
2012,02,04,13,17,11.20
2012,02,04,13,18,11.20
2012,02,04,13,19,11.20
2012,02,04,13,20,11.20
2012,02,04,13,21,11.30
2012,02,04,13,22,11.30
2012,02,04,13,23,11.30
2012,02,04,13,24,11.30
2012,02,04,13,25,11.10
2012,02,04,13,26,11.10
2012,02,04,13,27,11.00
2012,02,04,13,28,10.90
2012,02,04,13,29,10.90
2012,02,04,13,30,11.00
2012,02,04,13,31,11.00
2012,02,04,13,32,10.90
2012,02,04,13,33,10.80
2012,02,04,13,34,10.70
2012,02,04,13,35,10.70
2012,02,04,13,36,10.70
2012,02,04,13,37,10.70
2012,02,04,13,38,10.70
2012,02,04,13,39,10.80
2012,02,04,13,40,10.80
2012,02,04,13,41,10.80
2012,02,04,13,42,10.70
2012,02,04,13,43,10.70
2012,02,04,13,44,10.70
2012,02,04,13,45,10.70
2012,02,04,13,46,10.80
2012,02,04,13,47,10.80
2012,02,04,13,48,10.80
2012,02,04,13,49,10.90
2012,02,04,13,50,10.90
2012,02,04,13,51,10.80
2012,02,04,13,52,10.80
2012,02,04,13,53,10.70
2012,02,04,13,54,10.60
2012,02,04,13,55,10.50
2012,02,04,13,56,10.40
2012,02,04,13,57,10.40
2012,02,04,13,58,10.40
2012,02,04,13,59,10.30
2012,02,04,14,00,10.30
2012,02,04,14,01,10.20
2012,02,04,14,02,10.20
2012,02,04,14,03,10.30
2012,02,04,14,04,10.30
2012,02,04,14,05,10.40
2012,02,04,14,06,10.40
2012,02,04,14,07,10.40
2012,02,04,14,08,10.40
2012,02,04,14,09,10.60
2012,02,04,14,10,10.60
2012,02,04,14,11,10.60
2012,02,04,14,12,10.60
2012,02,04,14,13,10.60
2012,02,04,14,14,10.60
2012,02,04,14,15,10.60
2012,02,04,14,16,10.70
2012,02,04,14,17,10.70
2012,02,04,14,18,10.80
2012,02,04,14,19,10.80
2012,02,04,14,20,10.80
2012,02,04,14,21,10.90
2012,02,04,14,22,10.90
2012,02,04,14,23,10.90
2012,02,04,14,24,10.90
2012,02,04,14,25,11.00
2012,02,04,14,26,11.10
2012,02,04,14,27,11.00
2012,02,04,14,28,10.90
2012,02,04,14,29,10.90
2012,02,04,14,30,10.90
2012,02,04,14,31,10.90
2012,02,04,14,32,10.90
2012,02,04,14,33,10.90
2012,02,04,14,34,10.90
2012,02,04,14,35,10.90
2012,02,04,14,36,10.90
2012,02,04,14,37,10.90
2012,02,04,14,38,10.90
2012,02,04,14,39,11.00
2012,02,04,14,40,11.10
2012,02,04,14,41,11.10
2012,02,04,14,42,11.10
2012,02,04,14,43,11.10
2012,02,04,14,44,11.00
2012,02,04,14,45,10.90
2012,02,04,14,46,10.90
2012,02,04,14,47,10.90
2012,02,04,14,48,10.90
2012,02,04,14,49,10.90
2012,02,04,14,50,10.90
2012,02,04,14,51,10.90
2012,02,04,14,52,10.90
2012,02,04,14,53,10.90
2012,02,04,14,54,10.90
2012,02,04,14,55,10.80
2012,02,04,14,56,10.80
2012,02,04,14,57,10.80
2012,02,04,14,58,10.80
2012,02,04,14,59,10.70
2012,02,04,15,00,10.70
2012,02,04,15,01,10.70
2012,02,04,15,02,10.70
2012,02,04,15,03,10.70
2012,02,04,15,04,10.70
2012,02,04,15,05,10.70
2012,02,04,15,06,10.70
2012,02,04,15,07,10.70
2012,02,04,15,08,10.70
2012,02,04,15,09,10.70
2012,02,04,15,10,10.70
2012,02,04,15,11,10.70
2012,02,04,15,12,10.70
2012,02,04,15,13,10.80
2012,02,04,15,14,10.80
2012,02,04,15,15,10.90
2012,02,04,15,16,10.90
2012,02,04,15,17,10.90
2012,02,04,15,18,10.80
2012,02,04,15,19,10.90
2012,02,04,15,20,10.90
2012,02,04,15,21,10.90
2012,02,04,15,22,10.90
2012,02,04,15,23,10.90
2012,02,04,15,24,10.90
2012,02,04,15,25,11.00
2012,02,04,15,26,11.10
2012,02,04,15,27,11.10
2012,02,04,15,28,11.00
2012,02,04,15,29,10.90
2012,02,04,15,30,10.90
2012,02,04,15,31,10.90
2012,02,04,15,32,10.90
2012,02,04,15,33,10.90
2012,02,04,15,34,10.90
2012,02,04,15,35,10.90
2012,02,04,15,36,10.90
2012,02,04,15,37,10.80
2012,02,04,15,38,10.80
2012,02,04,15,39,10.70
2012,02,04,15,40,10.70
2012,02,04,15,41,10.60
2012,02,04,15,42,10.60
2012,02,04,15,43,10.60
2012,02,04,15,44,10.60
2012,02,04,15,45,10.60
2012,02,04,15,46,10.60
2012,02,04,15,47,10.60
2012,02,04,15,48,10.50
2012,02,04,15,49,10.40
2012,02,04,15,50,10.40
2012,02,04,15,51,10.40
2012,02,04,15,52,10.40
2012,02,04,15,53,10.40
2012,02,04,15,54,10.40
2012,02,04,15,55,10.30
2012,02,04,15,56,10.30
2012,02,04,15,57,10.20
2012,02,04,15,58,10.20
2012,02,04,15,59,10.20
2012,02,04,16,00,10.10
2012,02,04,16,01,10.10
2012,02,04,16,02,10.10
2012,02,04,16,03,10.10
2012,02,04,16,04,10.10
2012,02,04,16,05,10.00
2012,02,04,16,06,9.90
2012,02,04,16,07,9.90
2012,02,04,16,08,9.90
2012,02,04,16,09,9.90
2012,02,04,16,10,9.90
2012,02,04,16,11,9.90
2012,02,04,16,12,9.90
2012,02,04,16,13,9.90
2012,02,04,16,14,9.90
2012,02,04,16,15,9.90
2012,02,04,16,16,9.90
2012,02,04,16,17,9.90
2012,02,04,16,18,9.90
2012,02,04,16,19,9.90
2012,02,04,16,20,9.80
2012,02,04,16,21,9.80
2012,02,04,16,22,9.80
2012,02,04,16,23,9.80
2012,02,04,16,24,9.80
2012,02,04,16,25,9.80
2012,02,04,16,26,9.70
2012,02,04,16,27,9.70
2012,02,04,16,28,9.70
2012,02,04,16,29,9.70
2012,02,04,16,30,9.70
2012,02,04,16,31,9.70
2012,02,04,16,32,9.70
2012,02,04,16,33,9.70
2012,02,04,16,34,9.70
2012,02,04,16,35,9.60
2012,02,04,16,36,9.60
2012,02,04,16,37,9.60
2012,02,04,16,38,9.50
2012,02,04,16,39,9.50
2012,02,04,16,40,9.50
2012,02,04,16,41,9.40
2012,02,04,16,42,9.30
2012,02,04,16,43,9.30
2012,02,04,16,44,9.20
2012,02,04,16,45,9.20
2012,02,04,16,46,9.20
2012,02,04,16,47,9.10
2012,02,04,16,48,9.10
2012,02,04,16,49,9.10
2012,02,04,16,50,9.00
2012,02,04,16,51,9.00
2012,02,04,16,52,8.90
2012,02,04,16,53,8.90
2012,02,04,16,54,8.90
2012,02,04,16,55,8.80
2012,02,04,16,56,8.80
2012,02,04,16,57,8.70
2012,02,04,16,58,8.70
2012,02,04,16,59,8.70
2012,02,04,17,00,8.70
2012,02,04,17,01,8.70
2012,02,04,17,02,8.60
2012,02,04,17,03,8.60
2012,02,04,17,04,8.60
2012,02,04,17,05,8.50
2012,02,04,17,06,8.50
2012,02,04,17,07,8.50
2012,02,04,17,08,8.50
2012,02,04,17,09,8.40
2012,02,04,17,10,8.40
2012,02,04,17,11,8.40
2012,02,04,17,12,8.30
2012,02,04,17,13,8.30
2012,02,04,17,14,8.30
2012,02,04,17,15,8.30
2012,02,04,17,16,8.30
2012,02,04,17,17,8.30
2012,02,04,17,18,8.30
2012,02,04,17,19,8.30
2012,02,04,17,20,8.30
2012,02,04,17,21,8.20
2012,02,04,17,22,8.20
2012,02,04,17,23,8.20
2012,02,04,17,24,8.20
2012,02,04,17,25,8.20
2012,02,04,17,26,8.20
2012,02,04,17,27,8.20
2012,02,04,17,28,8.10
2012,02,04,17,29,8.10
2012,02,04,17,30,8.10
2012,02,04,17,31,8.00
2012,02,04,17,32,8.00
2012,02,04,17,33,8.00
2012,02,04,17,34,8.00
2012,02,04,17,35,7.90
2012,02,04,17,36,7.90
2012,02,04,17,37,7.80
2012,02,04,17,38,7.80
2012,02,04,17,39,7.80
2012,02,04,17,40,7.70
2012,02,04,17,41,7.60
2012,02,04,17,42,7.60
2012,02,04,17,43,7.50
2012,02,04,17,44,7.50
2012,02,04,17,45,7.40
2012,02,04,17,46,7.30
2012,02,04,17,47,7.30
2012,02,04,17,48,7.30
2012,02,04,17,49,7.20
2012,02,04,17,50,7.20
2012,02,04,17,51,7.10
2012,02,04,17,52,7.10
2012,02,04,17,53,7.10
2012,02,04,17,54,7.00
2012,02,04,17,55,7.00
2012,02,04,17,56,6.90